Lördag 28 januari - FMI:s prognos

Daggp. Vind Medel Byar Luftfukt. Moln
17:00 Regn -4° vindpil 6 m/s 10 m/s   1023 hPa 97 % 100 %
18:00 Molnigt -3° vindpil 5 m/s 10 m/s   1022 hPa 98 % 100 %
19:00 Molnigt -3° vindpil 5 m/s 9 m/s   1022 hPa 100 % 100 %
20:00 Molnigt -3° vindpil 5 m/s 9 m/s   1022 hPa 100 % 100 %
21:00 Molnigt -2° vindpil 4 m/s 8 m/s   1022 hPa 100 % 100 %
22:00 Molnigt -2° vindpil 4 m/s 8 m/s   1021 hPa 100 % 100 %
23:00 Molnigt -2° vindpil 4 m/s 7 m/s   1021 hPa 100 % 100 %

Söndag 29 januari - FMI:s prognos

Daggp. Vind Medel Byar Luftfukt. Moln
00:00 Molnigt -1° vindpil 4 m/s 7 m/s   1021 hPa 99 % 100 %
01:00 Molnigt -2° vindpil 4 m/s 7 m/s   1021 hPa 99 % 100 %
02:00 Molnigt -2° vindpil 5 m/s 8 m/s   1020 hPa 99 % 100 %
03:00 Molnigt -2° vindpil 5 m/s 9 m/s   1020 hPa 100 % 100 %
04:00 Molnigt -2° vindpil 5 m/s 9 m/s   1020 hPa 100 % 100 %
05:00 Molnigt -2° vindpil 5 m/s 9 m/s   1019 hPa 99 % 100 %
06:00 Molnigt -2° vindpil 5 m/s 9 m/s   1018 hPa 99 % 100 %
07:00 Molnigt -2° vindpil 5 m/s 9 m/s   1018 hPa 98 % 100 %
08:00 Molnigt -2° vindpil 6 m/s 9 m/s   1018 hPa 98 % 100 %
09:00 Molnigt -2° vindpil 6 m/s 10 m/s   1017 hPa 98 % 100 %
10:00 Molnigt -2° vindpil 6 m/s 10 m/s   1017 hPa 99 % 100 %
11:00 Molnigt -2° vindpil 6 m/s 11 m/s   1016 hPa 98 % 100 %
12:00 Molnigt -1° vindpil 6 m/s 11 m/s   1016 hPa 96 % 100 %
13:00 Molnigt -1° vindpil 6 m/s 10 m/s   1014 hPa 98 % 100 %
14:00 Molnigt -1° vindpil 5 m/s 9 m/s   1014 hPa 99 % 100 %
15:00 Molnigt -1° vindpil 5 m/s 9 m/s   1013 hPa 99 % 100 %
16:00 Molnigt -1° vindpil 6 m/s 11 m/s   1012 hPa 96 % 100 %
17:00 Molnigt -1° vindpil 6 m/s 11 m/s   1011 hPa 97 % 100 %
18:00 Molnigt -1° vindpil 5 m/s 10 m/s   1010 hPa 95 % 100 %
19:00 Molnigt -1° vindpil 6 m/s 10 m/s   1009 hPa 96 % 100 %
20:00 Molnigt -1° vindpil 6 m/s 11 m/s   1008 hPa 96 % 100 %
21:00 Molnigt -2° vindpil 7 m/s 12 m/s 0,1 mm 1007 hPa 95 % 100 %
22:00 Regn -2° vindpil 7 m/s 12 m/s 0,1 mm 1005 hPa 96 % 100 %
23:00 Regn -2° vindpil 8 m/s 13 m/s 0,1 mm 1004 hPa 96 % 100 %

Måndag 30 januari - FMI:s prognos

Daggp. Vind Medel Byar Luftfukt. Moln
00:00 Regn -2° vindpil 8 m/s 14 m/s 0,9 mm 1002 hPa 98 % 100 %
01:00 Regn -2° vindpil 9 m/s 14 m/s 1,4 mm 1000 hPa 99 % 100 %
02:00 Regn -1° vindpil 9 m/s 16 m/s 2,2 mm 998 hPa 98 % 100 %
03:00 Regn -1° vindpil 9 m/s 17 m/s 0,8 mm 997 hPa 96 % 100 %
04:00 Regn -1° vindpil 7 m/s 16 m/s 0,2 mm 996 hPa 95 % 100 %
05:00 Regn -1° vindpil 7 m/s 13 m/s   996 hPa 94 % 100 %
06:00 Molnigt -1° vindpil 8 m/s 14 m/s 0,1 mm 996 hPa 92 % 79 %
07:00 Regn -1° vindpil 6 m/s 14 m/s 0,3 mm 996 hPa 87 % 100 %
08:00 Regn -2° vindpil 8 m/s 14 m/s 0,3 mm 996 hPa 88 % 100 %
09:00 Regn -2° vindpil 7 m/s 13 m/s   995 hPa 93 % 100 %
10:00 Molnigt -2° vindpil 7 m/s 12 m/s 1,0 mm 995 hPa 91 % 100 %
11:00 Regn -2° vindpil 7 m/s 12 m/s   994 hPa 93 % 100 %
12:00 Molnigt -2° vindpil 8 m/s 14 m/s   994 hPa 93 % 100 %
13:00 Molnigt -2° vindpil 8 m/s 14 m/s   994 hPa 87 % 100 %
14:00 Klart -1° vindpil 7 m/s 15 m/s   993 hPa 87 % 20 %
15:00 Molnigt -1° vindpil 9 m/s 15 m/s   994 hPa 89 % 100 %
16:00 Molnigt -1° vindpil 9 m/s 16 m/s   995 hPa 90 % 100 %
17:00 Klart -2° vindpil 8 m/s 16 m/s   996 hPa 92 % 4 %
18:00 Klart -2° vindpil 7 m/s 14 m/s   998 hPa 89 % 0 %
19:00 Molnigt -2° -2° vindpil 9 m/s 15 m/s   999 hPa 78 % 99 %
20:00 Molnigt -3° -1° vindpil 10 m/s 16 m/s   1000 hPa 82 % 100 %
21:00 Molnigt -3° vindpil 9 m/s 17 m/s   1001 hPa 86 % 99 %
22:00 Klart -3° vindpil 9 m/s 16 m/s   1002 hPa 87 % 7 %
23:00 Klart -4° -1° vindpil 10 m/s 16 m/s   1003 hPa 83 % 0 %

Tisdag 31 januari - FMI:s prognos

Daggp. Vind Medel Byar Luftfukt. Moln
00:00 Klart -4° -1° vindpil 8 m/s 16 m/s   1004 hPa 85 % 1 %
01:00 Klart -4° -2° vindpil 8 m/s 14 m/s   1005 hPa 83 % 0 %
02:00 Klart -4° -1° vindpil 8 m/s 15 m/s   1006 hPa 88 % 11 %
03:00 Klart -4° -1° vindpil 8 m/s 14 m/s   1006 hPa 86 % 2 %
04:00 Klart -4° -3° vindpil 8 m/s 13 m/s   1006 hPa 82 % 0 %
05:00 Molnigt -4° -1° vindpil 7 m/s 13 m/s   1007 hPa 90 % 88 %
06:00 Klart -4° -1° vindpil 7 m/s 13 m/s   1007 hPa 90 % 28 %
07:00 Molnigt -4° -1° vindpil 6 m/s 12 m/s   1007 hPa 91 % 95 %

Vädervarningar

Vädervarningar - från SMHI

Öresund Gul varning. Kuling 14-17 m/s. Händelse: Från sent söndag kväll sydväst eller väst tidvis 15 m/s.
När: 29 jan kl 21:00 - 30 jan kl 03:00 Visa hela vädervarningen
Öresund Gul varning. Lågt vattenstånd. Händelse: Från natt mot måndag till måndag förmiddag söder om bron -60 till -70 cm i RH 2000.
När: 30 jan kl 03:00 - 10:00 Visa hela vädervarningen
Se alla vädervarningar

Väderstatistik och historik för Malmö

Vädret för ett år sedan

Min Max Väderstation
3,4° 8,2° Malmö
2,4° 7,9° Oxie
3,2° 8,0° Malmö ö
3,4° 7,7° Lernacken
3,4° 8,2° Löddeköpinge
Förra årets uppmätta temperaturer den 29 jan 2022.

Årstider

Vintern ankommer normalt om
17 dagar
Vår 16 februari
Sommar 6 maj
Höst 14 oktober
Vinter 15 februari
Årstidernas genomsnittliga ankomstdatum vid väderstationen Malmö 2 (1 km bort). Källa: Bearbetning av SMHI:s normaltemperaturer.